Location: Unspecified
(0.0000°N, 0.0000°E)
Time: 18:51:59
(UTC+00:00)

Transit 2A - Pass Details

Date: 26 May 2019
Orbit: 596 x 962 km, 66.7° (Epoch: 18 August)

Event Time Altitude Azimuth Distance (km) Brightness Sun altitude
Rises 17:49:59 0° 319° (NW) 3,175 10.5 1.7°
Reaches altitude 10° 17:52:47 10° 307° (NW) 2,188 10.1 1.0°
Maximum altitude 17:56:49 25° 252° (WSW) 1,342 8.1 0.1°
Drops below altitude 10° 18:00:36 10° 196° (SSW) 2,033 8.2 -0.8°
Sets 18:03:07 0° 182° (S) 2,902 8.8 -1.4°
